Regional Weather Roundup
Issued by NWS Sioux Falls, SD

Home | Current Version | Previous Version | Text Only | Print | Product List | Glossary On
Versions: 1 2 3 4 5 6 7 8 9 10 11 12 13 14 15 16 17 18 19 20 21 22 23 24 25 26 27 28 29 30 31 32 33 34 35 36 37 38 39 40 41 42 43 44 45 46 47 48 49 50
000
ASUS43 KFSD 180310
RWRFSD

WEATHER ROUNDUP FOR SE SOUTH DAKOTA/SW MINNESOTA/NW IOWA
NATIONAL WEATHER SERVICE SIOUX FALLS SD
900 PM CST TUE JAN 17 2017

NOTE: "FAIR" INDICATES FEW OR NO CLOUDS BELOW 12,000 FEET WITH NO
SIGNIFICANT WEATHER AND OR OBSTRUCTIONS TO VISIBILITY.


SDZ038>040-050-052>070-180400-
SOUTHEAST SOUTH DAKOTA

CITY           SKY/WX    TMP DP  RH WIND       PRES   REMARKS
BROOKINGS      CLOUDY    22  20  92 S12       29.94F WCI  10
CHAMBERLAIN    CLOUDY    22  19  89 CALM      29.90F
HURON          CLOUDY    25  23  92 S12       29.92F WCI  14
MADISON          N/A     25  25 100 S12         N/A  WCI  14
MITCHELL       CLOUDY    29  28  96 S10       29.94F WCI  20
SIOUX FALLS    CLOUDY    28  26  92 SW6       29.98S WCI  22
WINNER         FAIR      33  18  53 SW8       29.90F WCI  26
YANKTON        CLOUDY    30  27  86 SE6       29.98F WCI  24
$$

MNZ071-072-080-081-089-090-097-098-180400-
SOUTHWEST MINNESOTA

CITY           SKY/WX    TMP DP  RH WIND       PRES   REMARKS
JACKSON        CLOUDY    27  25  93 SW6       30.00R WCI  20
LUVERNE        CLOUDY    21  19  93 S5        30.00R WCI  15
MARSHALL       CLOUDY    25  20  81 SW5       29.96S WCI  19
MONTEVIDEO     CLOUDY    19  18  93 SW7       29.96F WCI  10
PIPESTONE      CLOUDY    25  25 100 SW12      29.96F WCI  14
REDWOOD FALLS  CLOUDY    20  17  88 S6        29.97F WCI  12
TRACY          CLOUDY    29  25  85 SW18      29.96S WCI  16
WINDOM         CLOUDY    27  25  93 SW7       29.98S WCI  19
WORTHINGTON    CLOUDY    26  25  96 SW14      29.99R WCI  14
$$

IAZ001>003-012>014-020>022-031-032-NEZ013-014-SDZ071-180400-
NORTHWEST IOWA

CITY           SKY/WX    TMP DP  RH WIND       PRES   REMARKS
CHEROKEE       CLOUDY    27  27 100 S6        30.04F FOG     WCI  20
DENISON        CLOUDY    27  27 100 S7        30.05S FOG     WCI  19
ESTHERVILLE    CLOUDY    26  25  96 SW8       30.00F WCI  18
LE MARS        CLOUDY    30  28  93 S8        30.03F WCI  23
ORANGE CITY    CLOUDY    27  27 100 S5        30.01S WCI  21
SHELDON        CLOUDY    28  28 100 S7        30.00R WCI  21
SIOUX CITY     CLOUDY    27  25  92 SE7       30.04F WCI  19
SPENCER        CLOUDY    27  26  96 SW10      30.01F FOG     WCI  17
STORM LAKE     CLOUDY    28  28 100 SW12      30.04S FOG     WCI  18
$$

ABBREVIATIONS USED IN REMARKS
   TC - TEMPERATURE IN CELSIUS
  WCI - WIND CHILL INDEX
   HX - HEAT INDEX
  VSB - VISIBILITY





USA.gov is the U.S. government's official web portal to all federal, state and local government web resources and services.